Regional Weather Roundup
Issued by NWS New Orleans/Baton Rouge, LA

Home | Current Version | Previous Version | Text Only | Print | Product List | Glossary On
Versions: 1 2 3 4 5 6 7 8 9 10 11 12 13 14 15 16 17 18 19 20 21 22 23 24 25 26 27 28 29 30 31 32 33 34 35 36 37 38 39 40 41 42 43 44 45 46 47 48 49 50
000
ASUS44 KLIX 240813
RWRLIX
NEW ORLEANS REGIONAL WEATHER ROUNDUP
NATIONAL WEATHER SERVICE NEW ORLEANS LA
300 AM CDT SUN SEP 24 2017

NOTE: "FAIR" INDICATES FEW OR NO CLOUDS BELOW 12,000 FEET WITH NO
      SIGNIFICANT WEATHER AND/OR OBSTRUCTIONS TO VISIBILITY.
      SKY/WX - SKY CONDITION AND SIGNIFICANT WEATHER.
      TMP - AIR TEMPERATURE.     DP    - DEWPOINT TEMPERATURE.
      RH  - RELATIVE HUMIDITY.   PRES  - PRESSURE.
      HI  - HEAT INDEX.          WCI   - WIND CHILL INDEX.

*  THESE STATIONS ARE NOT NWS OR FAA STATIONS AND ARE NOT UNDER
   NWS QUALITY CONTROL.

LAZ038-040-048-061>063-065>067-069-240900-
SOUTHEAST LOUISIANA

CITY           SKY/WX    TMP DP  RH WIND       PRES   REMARKS
N.O. INTL ARPT PTCLDY    78  72  81 VRB5      29.91R
N.O. LAKEFRONT CLEAR     79  71  76 E10       29.92R
N.O. DOWNTOWN*   N/A     78  70  76 NE7       29.92S
RESERVE*         N/A     74  69  84 NE3       29.92S
SLIDELL        CLEAR     70  66  87 CALM      29.92R
BATON ROUGE    CLEAR     69  66  90 NE3       29.92S
BOOTHVILLE     CLEAR     80  75  84 E6        29.90S
BELLE CHASSE   NOT AVBL
BOGALUSA*        N/A     70  66  89 CALM      29.95S
GALLIANO*      SUNNY     73  69  87 CALM      29.90S
NEW ROADS*       N/A     68  66  92 CALM      29.93R
GONZALES*        N/A     71  66  84 CALM      29.91S
HAMMOND*       CLEAR     68  63  83 CALM      29.93S
HOUMA*         NOT AVBL
PORT FOURCHON* SUNNY     82  72  69 SE8       29.90S

$$

MSZ070-080>082-240900-
SOUTHERN MISSISSIPPI

CITY           SKY/WX    TMP DP  RH WIND       PRES   REMARKS
MCCOMB         CLEAR     70  65  84 CALM      29.95R
GULFPORT       PTCLDY    71  69  93 N3        29.91S
BILOXI         CLOUDY    71  68  89 N3        29.91S
PASCAGOULA     CLOUDY    70  67  90 CALM      29.91F

$$

COASTAL OBSERVATIONS
LAKE AND NEARSHORE STATIONS

STATION/POSITION TIME  TEMP    WIND        PRES    WAVE
                       AIR SEA DIR/SP/G            HT/PER
                 (UTC) (F)     (DEG/KT/KT) (MB)    (FT/S)
PASCAGOULA       0748   72      30/  4/  5 1012.3
WAVELAND YACHT   0748   74 84   20/  8/  9 1013.3
GRAND ISLE       0748   82 85  100/  7/ 11 1012.5
SOUTHWEST PASS   0748          100/ 17/ 20   N/A
NEW CANAL        0748   79 83   70/ 10/ 12 1012.8
SHELL BEACH      0748   79 86   50/ 11/ 13 1012.9

OFFSHORE STATIONS

STATION/POSITION TIME  TEMP    WIND        PRES    WAVE
                       AIR SEA DIR/SP/G            HT/PER
                 (UTC) (F)     (DEG/KT/KT) (MB)    (FT/S)
64 S DAUPHIN ISL 0750   82 83   70/ 10/ 14 1011.8    4/ 6

$$




USA.gov is the U.S. government's official web portal to all federal, state and local government web resources and services.